Thu, 28 Jan 2021 12:03:25 UTC

Information for RPM xxhash-libs-0.7.3-1.fc33.aarch64.rpm

ID20813713
Namexxhash-libs
Version0.7.3
Release1.fc33
Epoch
Archaarch64
SummaryExtremely fast hash algorithm - library
DescriptionxxHash is an Extremely fast Hash algorithm, running at RAM speed limits. It successfully completes the SMHasher test suite which evaluates collision, dispersion and randomness qualities of hash functions. Code is highly portable, and hashes are identical on all platforms (little / big endian).
Build Time2020-03-06 16:25:51 GMT
Size31,871
f8eca1da852148bc7c407facc0f15d8f
LicenseBSD
Buildrootf33-build-19712396-1402093
Provides
libxxhash.so.0()(64bit)
xxhash-libs = 0.7.3-1.fc33
xxhash-libs(aarch-64) = 0.7.3-1.fc33
Obsoletes No Obsoletes
Conflicts No Conflicts
Requires
ld-linux-aarch64.so.1()(64bit)
ld-linux-aarch64.so.1(GLIBC_2.17)(64bit)
libc.so.6()(64bit)
libc.so.6(GLIBC_2.17)(64bit)
rpmlib(CompressedFileNames) <= 3.0.4-1
rpmlib(FileDigests) <= 4.6.0-1
rpmlib(PayloadFilesHavePrefix) <= 4.0-1
rpmlib(PayloadIsZstd) <= 5.4.18-1
rtld(GNU_HASH)
Recommends No Recommends
Suggests No Suggests
Supplements No Supplements
Enhances No Enhances
Files
1 through 9 of 9
Name ascending sort Size
/usr/lib/.build-id0
/usr/lib/.build-id/b00
/usr/lib/.build-id/b0/c80240f49c973ed1b6b066c3ecc497f9ee7aad40
/usr/lib64/libxxhash.so.018
/usr/lib64/libxxhash.so.0.7.369,392
/usr/share/doc/xxhash-libs0
/usr/share/doc/xxhash-libs/README.md9,819
/usr/share/licenses/xxhash-libs0
/usr/share/licenses/xxhash-libs/LICENSE2,236
Component of
Page:
1 through 50 of 143014 >>>
Buildroot descending sort Created State
f33-perl-21282052-1654498 2020-06-30 21:19:15 expired
f33-build-21248485-1656562 2020-06-29 00:13:05 expired
f33-build-21246897-1656562 2020-06-28 21:16:28 expired
f33-build-21245820-1656562 2020-06-28 18:18:04 expired
f33-build-21243516-1656562 2020-06-28 15:21:06 expired
f33-perl-21243458-1654498 2020-06-28 14:37:00 expired
f33-build-21242370-1656562 2020-06-28 12:27:06 expired
f33-build-21240058-1656562 2020-06-28 09:32:21 expired
f33-build-21238522-1656562 2020-06-28 06:28:40 expired
f33-build-21236712-1656562 2020-06-28 03:33:08 expired
f33-build-21232627-1656562 2020-06-27 20:56:17 expired
f33-build-21232212-1658531 2020-06-27 19:43:06 expired
f33-build-21232196-1658531 2020-06-27 19:40:41 expired
f33-build-21232191-1658531 2020-06-27 19:38:36 expired
f33-build-21232161-1658531 2020-06-27 19:37:20 expired
f33-build-21232128-1658531 2020-06-27 19:32:49 expired
f33-build-21232122-1658531 2020-06-27 19:32:39 expired
f33-build-21232110-1658531 2020-06-27 19:31:59 expired
f33-build-21232091-1658531 2020-06-27 19:31:14 expired
f33-build-21232045-1658531 2020-06-27 19:17:15 expired
f33-build-21232025-1658531 2020-06-27 18:39:38 expired
f33-build-21232009-1658455 2020-06-27 18:22:27 expired
f33-build-side-24835-21232003-1658476 2020-06-27 18:20:53 expired
f33-build-21232001-1658455 2020-06-27 18:19:07 expired
f33-build-21232000-1658455 2020-06-27 18:19:02 expired
f33-build-21231999-1658455 2020-06-27 18:18:57 expired
f33-build-side-24835-21231988-1658402 2020-06-27 18:15:00 expired
f33-build-21231970-1658380 2020-06-27 18:10:04 expired
f33-build-21231955-1658380 2020-06-27 18:01:09 expired
f33-build-side-24835-21231953-1658325 2020-06-27 18:00:59 expired
f33-build-21231946-1658380 2020-06-27 17:57:39 expired
f33-build-21231938-1658305 2020-06-27 17:50:07 expired
f33-build-21231935-1658305 2020-06-27 17:47:44 expired
f33-build-21231930-1656562 2020-06-27 17:46:48 expired
f33-build-21231925-1658305 2020-06-27 17:45:25 expired
f33-build-21231912-1658305 2020-06-27 17:41:36 expired
f33-build-21231909-1658305 2020-06-27 17:41:17 expired
f33-build-21231906-1658305 2020-06-27 17:41:02 expired
f33-build-21231905-1658305 2020-06-27 17:41:01 expired
f33-build-21231898-1658305 2020-06-27 17:40:06 expired
f33-build-21231891-1658305 2020-06-27 17:39:51 expired
f33-build-21231889-1658305 2020-06-27 17:39:30 expired
f33-build-21231885-1658231 2020-06-27 17:39:16 expired
f33-build-21231869-1658231 2020-06-27 17:37:07 expired
f33-build-21231865-1658231 2020-06-27 17:35:24 expired
f33-build-21231854-1658231 2020-06-27 17:32:37 expired
f33-build-21231845-1658231 2020-06-27 17:31:47 expired
f33-build-21231839-1658231 2020-06-27 17:29:43 expired
f33-build-21231833-1658231 2020-06-27 17:25:49 expired
f33-build-21231813-1658156 2020-06-27 17:11:30 expired